{"data":{"norad_id":66773,"epoch":"2026-05-25T04:21:29.349216Z","epoch_age_seconds":59588,"freshness":"FRESH","line1":"1 66773U 25276DM  26145.18158969  .00004138  00000+0  19368-3 0  9991","line2":"2 66773  97.4223 219.4100 0000581  23.9218 336.2044 15.20291250 26944","mean_motion":15.2029125,"eccentricity":5.81e-5,"inclination_deg":97.4223,"raan_deg":219.41,"arg_perigee_deg":23.9218,"mean_anomaly_deg":336.2044,"bstar":0.00019368,"rev_number":2694,"period_min":94.718692882038,"perigee_km":504.56147836186,"apogee_km":505.36129439435,"semimajor_km":6883.0983863781,"source":"CELESTRAK","updated_at":"2026-05-25T13:38:06.477882Z"}}